Content
SEND FEEDBACK

Daily
Averages
Monthly
Summary
United States of America

SAHUARITA, ARIZONA


Home > North America > United States > Arizona
Elevation: 2700 feet     Latitude: 31 59N     Longitude: 110 59W

WEATHER
 
SELECT A DAY
Number of Records: 111,184;   Date Range: 1/1/02 - 12/27/14
 
SHARE

PRINT THIS DATA

[ ← Previous Day ]
WEATHER ALMANAC - JANUARY 31, 2013
[ Next Day → ]
[ °C ]   °F
Weather ElementAverageHighLow
Temperature46.2 °F61 °F (2:53 pm)33.1 °F (5:53 am)
Dewpoint29 °F35.1 °F (9:53 pm)24.1 °F (1:53 pm)
Humidity54.9 %78 % (5:53 am)25 % (1:53 pm)
Barometer30.16 in30.24 in (1:53 am)30.09 in (4:53 pm)
Wind Speed4 mph11.5 mph (12:53 pm)
Weather ElementAverage
Visibility10 mi
Wind DirectionSSE (147 °)

Weather ElementTotal
Precipitation---
Heating Degree Days18 (Base 65)
Averaged from 23 records on January 31, 2013
WEATHER CONDITIONS BREAKOUT
WIND DIRECTION BREAKOUT
WEATHER BY HOUR - JANUARY 31, 2013
[ °C ]   °F
Local TimeTemperatureDewpointHumidityBarometerVisibilityWind DirectionWind SpeedGust SpeedPrecipitationEventsConditions
1:53 AM37.9 °F27.0 °F65 %30.24 in10.0 miESE (120°)3.5 mphClear
2:53 AM35.1 °F27.0 °F72 %30.23 in10.0 miSouth (190°)4.6 mphClear
3:53 AM34.0 °F27.0 °F75 %30.21 in10.0 miCalmClear
4:53 AM34.0 °F27.0 °F75 %30.20 in10.0 miCalmClear
5:53 AM33.1 °F27.0 °F78 %30.21 in10.0 miSSE (160°)4.6 mphClear
6:53 AM33.1 °F27.0 °F78 %30.20 in10.0 miSSE (150°)5.8 mphClear
7:53 AM34.0 °F27.0 °F75 %30.20 in10.0 miCalmClear
8:53 AM36.0 °F27.0 °F70 %30.19 in10.0 miCalmClear
9:53 AM44.1 °F28.0 °F53 %30.19 in10.0 miCalmClear
10:53 AM46.9 °F28.0 °F48 %30.20 in10.0 miCalmClear
11:53 AM53.1 °F30.0 °F41 %30.16 in10.0 miWest (270°)5.8 mphClear
12:53 PM57.0 °F26.1 °F30 %30.14 in10.0 miNorth (350°)11.5 mphClear
1:53 PM60.1 °F24.1 °F25 %30.10 in10.0 miNorth (10°)10.4 mphClear
2:53 PM61.0 °F25.0 °F25 %30.10 in10.0 miNorth (350°)11.5 mphClear
3:53 PM60.1 °F27.0 °F28 %30.11 in10.0 miNNW (340°)6.9 mphClear
4:53 PM60.1 °F28.9 °F31 %30.09 in10.0 miNorth (360°)4.6 mphClear
5:53 PM57.0 °F30.9 °F37 %30.10 in10.0 miNorth (350°)4.6 mphClear
6:53 PM53.1 °F33.1 °F47 %30.13 in10.0 miNW (310°)3.5 mphClear
7:53 PM52.0 °F33.1 °F49 %30.15 in10.0 miNW (310°)3.5 mphClear
8:53 PM48.9 °F34.0 °F56 %30.14 in10.0 miCalmClear
9:53 PM46.0 °F35.1 °F66 %30.14 in10.0 miCalmClear
10:53 PM43.0 °F35.1 °F74 %30.14 in10.0 miVariable3.5 mphClear
11:53 PM43.0 °F32.0 °F65 %30.14 in10.0 miESE (110°)6.9 mphClear
Hourly data recorded from KTUS, located miles away from Sahuarita, Arizona







STORIES FROM OUR PARTNERS